Year,Month,Day,Hour,Minute,Value (Times are PST for temperature in C)
2008,06,23,00,00,10.10
2008,06,23,00,01,10.00
2008,06,23,00,02,10.00
2008,06,23,00,03,9.90
2008,06,23,00,04,9.90
2008,06,23,00,05,9.90
2008,06,23,00,06,9.90
2008,06,23,00,07,9.90
2008,06,23,00,08,9.90
2008,06,23,00,09,9.80
2008,06,23,00,10,9.80
2008,06,23,00,11,9.80
2008,06,23,00,12,9.80
2008,06,23,00,13,9.80
2008,06,23,00,14,9.80
2008,06,23,00,15,9.80
2008,06,23,00,16,9.80
2008,06,23,00,17,9.80
2008,06,23,00,18,9.80
2008,06,23,00,19,9.80
2008,06,23,00,20,9.80
2008,06,23,00,21,9.70
2008,06,23,00,22,9.70
2008,06,23,00,23,9.70
2008,06,23,00,24,9.70
2008,06,23,00,25,9.70
2008,06,23,00,26,9.60
2008,06,23,00,27,9.60
2008,06,23,00,28,9.60
2008,06,23,00,29,9.60
2008,06,23,00,30,9.60
2008,06,23,00,31,9.60
2008,06,23,00,32,9.50
2008,06,23,00,33,9.50
2008,06,23,00,34,9.40
2008,06,23,00,35,9.40
2008,06,23,00,36,9.40
2008,06,23,00,37,9.40
2008,06,23,00,38,9.40
2008,06,23,00,39,9.40
2008,06,23,00,40,9.40
2008,06,23,00,41,9.30
2008,06,23,00,42,9.30
2008,06,23,00,43,9.30
2008,06,23,00,44,9.30
2008,06,23,00,45,9.30
2008,06,23,00,46,9.30
2008,06,23,00,47,9.20
2008,06,23,00,48,9.20
2008,06,23,00,49,9.20
2008,06,23,00,50,9.20
2008,06,23,00,51,9.20
2008,06,23,00,52,9.10
2008,06,23,00,53,9.10
2008,06,23,00,54,9.10
2008,06,23,00,55,9.10
2008,06,23,00,56,9.10
2008,06,23,00,57,9.10
2008,06,23,00,58,9.00
2008,06,23,00,59,9.00
2008,06,23,01,00,8.90
2008,06,23,01,01,8.90
2008,06,23,01,02,8.90
2008,06,23,01,03,8.90
2008,06,23,01,04,8.90
2008,06,23,01,05,8.90
2008,06,23,01,06,8.90
2008,06,23,01,07,8.90
2008,06,23,01,08,8.80
2008,06,23,01,09,8.80
2008,06,23,01,10,8.80
2008,06,23,01,11,8.80
2008,06,23,01,12,8.70
2008,06,23,01,13,8.70
2008,06,23,01,14,8.70
2008,06,23,01,15,8.70
2008,06,23,01,16,8.60
2008,06,23,01,17,8.60
2008,06,23,01,18,8.60
2008,06,23,01,19,8.60
2008,06,23,01,20,8.50
2008,06,23,01,21,8.50
2008,06,23,01,22,8.50
2008,06,23,01,23,8.50
2008,06,23,01,24,8.40
2008,06,23,01,25,8.40
2008,06,23,01,26,8.30
2008,06,23,01,27,8.30
2008,06,23,01,28,8.30
2008,06,23,01,29,8.30
2008,06,23,01,30,8.30
2008,06,23,01,31,8.20
2008,06,23,01,32,8.20
2008,06,23,01,33,8.20
2008,06,23,01,34,8.20
2008,06,23,01,35,8.20
2008,06,23,01,36,8.20
2008,06,23,01,37,8.10
2008,06,23,01,38,8.10
2008,06,23,01,39,8.10
2008,06,23,01,40,8.10
2008,06,23,01,41,8.10
2008,06,23,01,42,8.10
2008,06,23,01,43,8.00
2008,06,23,01,44,8.00
2008,06,23,01,45,8.00
2008,06,23,01,46,8.00
2008,06,23,01,47,8.00
2008,06,23,01,48,8.00
2008,06,23,01,49,7.90
2008,06,23,01,50,7.90
2008,06,23,01,51,7.90
2008,06,23,01,52,7.90
2008,06,23,01,53,7.90
2008,06,23,01,54,7.90
2008,06,23,01,55,7.80
2008,06,23,01,56,7.80
2008,06,23,01,57,7.80
2008,06,23,01,58,7.80
2008,06,23,01,59,7.80
2008,06,23,02,00,7.80
2008,06,23,02,01,7.80
2008,06,23,02,02,7.80
2008,06,23,02,03,7.80
2008,06,23,02,04,7.80
2008,06,23,02,05,7.70
2008,06,23,02,06,7.70
2008,06,23,02,07,7.70
2008,06,23,02,08,7.60
2008,06,23,02,09,7.60
2008,06,23,02,10,7.60
2008,06,23,02,11,7.60
2008,06,23,02,12,7.60
2008,06,23,02,13,7.60
2008,06,23,02,14,7.50
2008,06,23,02,15,7.50
2008,06,23,02,16,7.50
2008,06,23,02,17,7.40
2008,06,23,02,18,7.40
2008,06,23,02,19,7.30
2008,06,23,02,20,7.30
2008,06,23,02,21,7.30
2008,06,23,02,22,7.30
2008,06,23,02,23,7.30
2008,06,23,02,24,7.20
2008,06,23,02,25,7.20
2008,06,23,02,26,7.20
2008,06,23,02,27,7.20
2008,06,23,02,28,7.20
2008,06,23,02,29,7.20
2008,06,23,02,30,7.20
2008,06,23,02,31,7.20
2008,06,23,02,32,7.20
2008,06,23,02,33,7.20
2008,06,23,02,34,7.20
2008,06,23,02,35,7.10
2008,06,23,02,36,7.10
2008,06,23,02,37,7.10
2008,06,23,02,38,7.10
2008,06,23,02,39,7.10
2008,06,23,02,40,7.10
2008,06,23,02,41,7.10
2008,06,23,02,42,7.10
2008,06,23,02,43,7.10
2008,06,23,02,44,7.10
2008,06,23,02,45,7.10
2008,06,23,02,46,7.00
2008,06,23,02,47,7.00
2008,06,23,02,48,7.00
2008,06,23,02,49,7.00
2008,06,23,02,50,7.00
2008,06,23,02,51,6.90
2008,06,23,02,52,6.90
2008,06,23,02,53,6.90
2008,06,23,02,54,6.90
2008,06,23,02,55,6.90
2008,06,23,02,56,6.90
2008,06,23,02,57,6.80
2008,06,23,02,58,6.80
2008,06,23,02,59,6.80
2008,06,23,03,00,6.80
2008,06,23,03,01,6.80
2008,06,23,03,02,6.80
2008,06,23,03,03,6.70
2008,06,23,03,04,6.70
2008,06,23,03,05,6.70
2008,06,23,03,06,6.70
2008,06,23,03,07,6.70
2008,06,23,03,08,6.70
2008,06,23,03,09,6.70
2008,06,23,03,10,6.70
2008,06,23,03,11,6.60
2008,06,23,03,12,6.60
2008,06,23,03,13,6.60
2008,06,23,03,14,6.60
2008,06,23,03,15,6.60
2008,06,23,03,16,6.50
2008,06,23,03,17,6.50
2008,06,23,03,18,6.50
2008,06,23,03,19,6.40
2008,06,23,03,20,6.40
2008,06,23,03,21,6.40
2008,06,23,03,22,6.40
2008,06,23,03,23,6.40
2008,06,23,03,24,6.30
2008,06,23,03,25,6.30
2008,06,23,03,26,6.30
2008,06,23,03,27,6.30
2008,06,23,03,28,6.30
2008,06,23,03,29,6.30
2008,06,23,03,30,6.20
2008,06,23,03,31,6.20
2008,06,23,03,32,6.20
2008,06,23,03,33,6.20
2008,06,23,03,34,6.20
2008,06,23,03,35,6.20
2008,06,23,03,36,6.20
2008,06,23,03,37,6.20
2008,06,23,03,38,6.10
2008,06,23,03,39,6.10
2008,06,23,03,40,6.10
2008,06,23,03,41,6.10
2008,06,23,03,42,6.10
2008,06,23,03,43,6.10
2008,06,23,03,44,6.10
2008,06,23,03,45,6.10
2008,06,23,03,46,6.10
2008,06,23,03,47,6.10
2008,06,23,03,48,6.00
2008,06,23,03,49,6.00
2008,06,23,03,50,6.00
2008,06,23,03,51,6.00
2008,06,23,03,52,6.00
2008,06,23,03,53,6.00
2008,06,23,03,54,6.00
2008,06,23,03,55,6.00
2008,06,23,03,56,5.90
2008,06,23,03,57,5.90
2008,06,23,03,58,5.90
2008,06,23,03,59,5.90
2008,06,23,04,00,5.90
2008,06,23,04,01,5.90
2008,06,23,04,02,5.90
2008,06,23,04,03,5.90
2008,06,23,04,04,5.90
2008,06,23,04,05,5.90
2008,06,23,04,06,5.90
2008,06,23,04,07,5.90
2008,06,23,04,08,5.90
2008,06,23,04,09,5.90
2008,06,23,04,10,5.90
2008,06,23,04,11,5.80
2008,06,23,04,12,5.80
2008,06,23,04,13,5.80
2008,06,23,04,14,5.80
2008,06,23,04,15,5.80
2008,06,23,04,16,5.80
2008,06,23,04,17,5.80
2008,06,23,04,18,5.80
2008,06,23,04,19,5.80
2008,06,23,04,20,5.80
2008,06,23,04,21,5.80
2008,06,23,04,22,5.80
2008,06,23,04,23,5.70
2008,06,23,04,24,5.70
2008,06,23,04,25,5.70
2008,06,23,04,26,5.70
2008,06,23,04,27,5.70
2008,06,23,04,28,5.70
2008,06,23,04,29,5.70
2008,06,23,04,30,5.60
2008,06,23,04,31,5.60
2008,06,23,04,32,5.60
2008,06,23,04,33,5.60
2008,06,23,04,34,5.60
2008,06,23,04,35,5.60
2008,06,23,04,36,5.60
2008,06,23,04,37,5.60
2008,06,23,04,38,5.60
2008,06,23,04,39,5.60
2008,06,23,04,40,5.60
2008,06,23,04,41,5.60
2008,06,23,04,42,5.60
2008,06,23,04,43,5.50
2008,06,23,04,44,5.50
2008,06,23,04,45,5.50
2008,06,23,04,46,5.50
2008,06,23,04,47,5.50
2008,06,23,04,48,5.40
2008,06,23,04,49,5.40
2008,06,23,04,50,5.40
2008,06,23,04,51,5.40
2008,06,23,04,52,5.40
2008,06,23,04,53,5.40
2008,06,23,04,54,5.40
2008,06,23,04,55,5.40
2008,06,23,04,56,5.40
2008,06,23,04,57,5.40
2008,06,23,04,58,5.40
2008,06,23,04,59,5.40
2008,06,23,05,00,5.40
2008,06,23,05,01,5.40
2008,06,23,05,02,5.50
2008,06,23,05,03,5.40
2008,06,23,05,04,5.40
2008,06,23,05,05,5.40
2008,06,23,05,06,5.40
2008,06,23,05,07,5.40
2008,06,23,05,08,5.40
2008,06,23,05,09,5.40
2008,06,23,05,10,5.40
2008,06,23,05,11,5.40
2008,06,23,05,12,5.40
2008,06,23,05,13,5.40
2008,06,23,05,14,5.40
2008,06,23,05,15,5.40
2008,06,23,05,16,5.40
2008,06,23,05,17,5.50
2008,06,23,05,18,5.40
2008,06,23,05,19,5.50
2008,06,23,05,20,5.50
2008,06,23,05,21,5.50
2008,06,23,05,22,5.50
2008,06,23,05,23,5.50
2008,06,23,05,24,5.50
2008,06,23,05,25,5.50
2008,06,23,05,26,5.50
2008,06,23,05,27,5.50
2008,06,23,05,28,5.50
2008,06,23,05,29,5.50
2008,06,23,05,30,5.50
2008,06,23,05,31,5.50
2008,06,23,05,32,5.50
2008,06,23,05,33,5.50
2008,06,23,05,34,5.60
2008,06,23,05,35,5.50
2008,06,23,05,36,5.50
2008,06,23,05,37,5.50
2008,06,23,05,38,5.50
2008,06,23,05,39,5.50
2008,06,23,05,40,5.50
2008,06,23,05,41,5.50
2008,06,23,05,42,5.50
2008,06,23,05,43,5.50
2008,06,23,05,44,5.50
2008,06,23,05,45,5.50
2008,06,23,05,46,5.50
2008,06,23,05,47,5.50
2008,06,23,05,48,5.50
2008,06,23,05,49,5.50
2008,06,23,05,50,5.50
2008,06,23,05,51,5.50
2008,06,23,05,52,5.50
2008,06,23,05,53,5.50
2008,06,23,05,54,5.50
2008,06,23,05,55,5.50
2008,06,23,05,56,5.50
2008,06,23,05,57,5.40
2008,06,23,05,58,5.50
2008,06,23,05,59,5.50
2008,06,23,06,00,5.40
2008,06,23,06,01,5.40
2008,06,23,06,02,5.40
2008,06,23,06,03,5.40
2008,06,23,06,04,5.40
2008,06,23,06,05,5.40
2008,06,23,06,06,5.40
2008,06,23,06,07,5.40
2008,06,23,06,08,5.40
2008,06,23,06,09,5.40
2008,06,23,06,10,5.40
2008,06,23,06,11,5.40
2008,06,23,06,12,5.40
2008,06,23,06,13,5.40
2008,06,23,06,14,5.40
2008,06,23,06,15,5.40
2008,06,23,06,16,5.40
2008,06,23,06,17,5.40
2008,06,23,06,18,5.40
2008,06,23,06,19,5.40
2008,06,23,06,20,5.40
2008,06,23,06,21,5.40
2008,06,23,06,22,5.40
2008,06,23,06,23,5.40
2008,06,23,06,24,5.40
2008,06,23,06,25,5.40
2008,06,23,06,26,5.40
2008,06,23,06,27,5.40
2008,06,23,06,28,5.40
2008,06,23,06,29,5.50
2008,06,23,06,30,5.50
2008,06,23,06,31,5.50
2008,06,23,06,32,5.50
2008,06,23,06,33,5.60
2008,06,23,06,34,5.60
2008,06,23,06,35,5.60
2008,06,23,06,36,5.60
2008,06,23,06,37,5.60
2008,06,23,06,38,5.70
2008,06,23,06,39,5.70
2008,06,23,06,40,5.70
2008,06,23,06,41,5.70
2008,06,23,06,42,5.80
2008,06,23,06,43,5.80
2008,06,23,06,44,5.80
2008,06,23,06,45,5.80
2008,06,23,06,46,5.90
2008,06,23,06,47,5.90
2008,06,23,06,48,6.00
2008,06,23,06,49,6.10
2008,06,23,06,50,6.10
2008,06,23,06,51,6.30
2008,06,23,06,52,6.40
2008,06,23,06,53,6.50
2008,06,23,06,54,6.60
2008,06,23,06,55,6.70
2008,06,23,06,56,6.80
2008,06,23,06,57,6.90
2008,06,23,06,58,7.00
2008,06,23,06,59,7.10
2008,06,23,07,00,7.20
2008,06,23,07,01,7.30
2008,06,23,07,02,7.40
2008,06,23,07,03,7.50
2008,06,23,07,04,7.60
2008,06,23,07,05,7.70
2008,06,23,07,06,7.80
2008,06,23,07,07,7.90
2008,06,23,07,08,7.90
2008,06,23,07,09,8.10
2008,06,23,07,10,8.20
2008,06,23,07,11,8.30
2008,06,23,07,12,8.40
2008,06,23,07,13,8.40
2008,06,23,07,14,8.50
2008,06,23,07,15,8.60
2008,06,23,07,16,8.70
2008,06,23,07,17,8.80
2008,06,23,07,18,8.90
2008,06,23,07,19,9.00
2008,06,23,07,20,9.20
2008,06,23,07,21,9.30
2008,06,23,07,22,9.30
2008,06,23,07,23,9.30
2008,06,23,07,24,9.50
2008,06,23,07,25,9.60
2008,06,23,07,26,9.60
2008,06,23,07,27,9.60
2008,06,23,07,28,9.70
2008,06,23,07,29,9.70
2008,06,23,07,30,9.70
2008,06,23,07,31,9.70
2008,06,23,07,32,9.70
2008,06,23,07,33,9.80
2008,06,23,07,34,9.80
2008,06,23,07,35,9.80
2008,06,23,07,36,9.90
2008,06,23,07,37,9.90
2008,06,23,07,38,10.00
2008,06,23,07,39,10.10
2008,06,23,07,40,10.10
2008,06,23,07,41,10.10
2008,06,23,07,42,10.20
2008,06,23,07,43,10.20
2008,06,23,07,44,10.30
2008,06,23,07,45,10.40
2008,06,23,07,46,10.50
2008,06,23,07,47,10.60
2008,06,23,07,48,10.70
2008,06,23,07,49,10.70
2008,06,23,07,50,10.80
2008,06,23,07,51,10.90
2008,06,23,07,52,11.00
2008,06,23,07,53,11.00
2008,06,23,07,54,11.10
2008,06,23,07,55,11.20
2008,06,23,07,56,11.30
2008,06,23,07,57,11.40
2008,06,23,07,58,11.40
2008,06,23,07,59,11.50
2008,06,23,08,00,11.60
2008,06,23,08,01,11.70
2008,06,23,08,02,11.70
2008,06,23,08,03,11.80
2008,06,23,08,04,11.80
2008,06,23,08,05,11.90
2008,06,23,08,06,11.90
2008,06,23,08,07,11.90
2008,06,23,08,08,11.90
2008,06,23,08,09,11.90
2008,06,23,08,10,12.00
2008,06,23,08,11,12.00
2008,06,23,08,12,12.00
2008,06,23,08,13,12.00
2008,06,23,08,14,12.00
2008,06,23,08,15,12.10
2008,06,23,08,16,12.10
2008,06,23,08,17,12.10
2008,06,23,08,18,12.10
2008,06,23,08,19,12.20
2008,06,23,08,20,12.20
2008,06,23,08,21,12.30
2008,06,23,08,22,12.40
2008,06,23,08,23,12.50
2008,06,23,08,24,12.60
2008,06,23,08,25,12.70
2008,06,23,08,26,12.80
2008,06,23,08,27,12.80
2008,06,23,08,28,12.90
2008,06,23,08,29,12.90
2008,06,23,08,30,13.00
2008,06,23,08,31,13.10
2008,06,23,08,32,13.10
2008,06,23,08,33,13.20
2008,06,23,08,34,13.30
2008,06,23,08,35,13.30
2008,06,23,08,36,13.40
2008,06,23,08,37,13.40
2008,06,23,08,38,13.50
2008,06,23,08,39,13.60
2008,06,23,08,40,13.70
2008,06,23,08,41,13.70
2008,06,23,08,42,13.80
2008,06,23,08,43,13.80
2008,06,23,08,44,13.80
2008,06,23,08,45,13.80
2008,06,23,08,46,13.70
2008,06,23,08,47,13.70
2008,06,23,08,48,13.70
2008,06,23,08,49,13.70
2008,06,23,08,50,13.70
2008,06,23,08,51,13.70
2008,06,23,08,52,13.80
2008,06,23,08,53,13.80
2008,06,23,08,54,13.80
2008,06,23,08,55,13.90
2008,06,23,08,56,14.00
2008,06,23,08,57,14.10
2008,06,23,08,58,14.20
2008,06,23,08,59,14.20
2008,06,23,09,00,14.30
2008,06,23,09,01,14.30
2008,06,23,09,02,14.40
2008,06,23,09,03,14.50
2008,06,23,09,04,14.50
2008,06,23,09,05,14.50
2008,06,23,09,06,14.40
2008,06,23,09,07,14.40
2008,06,23,09,08,14.40
2008,06,23,09,09,14.30
2008,06,23,09,10,14.30
2008,06,23,09,11,14.30
2008,06,23,09,12,14.20
2008,06,23,09,13,14.20
2008,06,23,09,14,14.20
2008,06,23,09,15,14.20
2008,06,23,09,16,14.20
2008,06,23,09,17,14.20
2008,06,23,09,18,14.10
2008,06,23,09,19,14.10
2008,06,23,09,20,14.10
2008,06,23,09,21,14.20
2008,06,23,09,22,14.10
2008,06,23,09,23,14.10
2008,06,23,09,24,14.10
2008,06,23,09,25,14.10
2008,06,23,09,26,14.00
2008,06,23,09,27,14.00
2008,06,23,09,28,14.00
2008,06,23,09,29,13.90
2008,06,23,09,30,13.90
2008,06,23,09,31,13.90
2008,06,23,09,32,13.90
2008,06,23,09,33,13.90
2008,06,23,09,34,13.90
2008,06,23,09,35,13.90
2008,06,23,09,36,13.90
2008,06,23,09,37,13.90
2008,06,23,09,38,13.90
2008,06,23,09,39,13.90
2008,06,23,09,40,14.00
2008,06,23,09,41,14.00
2008,06,23,09,42,14.00
2008,06,23,09,43,14.00
2008,06,23,09,44,14.10
2008,06,23,09,45,14.10
2008,06,23,09,46,14.10
2008,06,23,09,47,14.10
2008,06,23,09,48,14.10
2008,06,23,09,49,14.10
2008,06,23,09,50,14.10
2008,06,23,09,51,14.10
2008,06,23,09,52,14.10
2008,06,23,09,53,14.00
2008,06,23,09,54,14.00
2008,06,23,09,55,14.00
2008,06,23,09,56,14.00
2008,06,23,09,57,14.00
2008,06,23,09,58,14.00
2008,06,23,09,59,14.00
2008,06,23,10,00,14.00
2008,06,23,10,01,14.00
2008,06,23,10,02,14.00
2008,06,23,10,03,14.00
2008,06,23,10,04,14.00
2008,06,23,10,05,14.10
2008,06,23,10,06,14.10
2008,06,23,10,07,14.20
2008,06,23,10,08,14.20
2008,06,23,10,09,14.20
2008,06,23,10,10,14.30
2008,06,23,10,11,14.30
2008,06,23,10,12,14.30
2008,06,23,10,13,14.30
2008,06,23,10,14,14.40
2008,06,23,10,15,14.40
2008,06,23,10,16,14.40
2008,06,23,10,17,14.40
2008,06,23,10,18,14.50
2008,06,23,10,19,14.40
2008,06,23,10,20,14.40
2008,06,23,10,21,14.40
2008,06,23,10,22,14.40
2008,06,23,10,23,14.50
2008,06,23,10,24,14.50
2008,06,23,10,25,14.50
2008,06,23,10,26,14.50
2008,06,23,10,27,14.60
2008,06,23,10,28,14.60
2008,06,23,10,29,14.60
2008,06,23,10,30,14.60
2008,06,23,10,31,14.60
2008,06,23,10,32,14.60
2008,06,23,10,33,14.70
2008,06,23,10,34,14.70
2008,06,23,10,35,14.70
2008,06,23,10,36,14.80
2008,06,23,10,37,14.80
2008,06,23,10,38,14.80
2008,06,23,10,39,14.90
2008,06,23,10,40,15.00
2008,06,23,10,41,15.00
2008,06,23,10,42,15.00
2008,06,23,10,43,15.00
2008,06,23,10,44,15.10
2008,06,23,10,45,15.20
2008,06,23,10,46,15.30
2008,06,23,10,47,15.40
2008,06,23,10,48,15.40
2008,06,23,10,49,15.40
2008,06,23,10,50,15.40
2008,06,23,10,51,15.40
2008,06,23,10,52,15.30
2008,06,23,10,53,15.30
2008,06,23,10,54,15.30
2008,06,23,10,55,15.40
2008,06,23,10,56,15.40
2008,06,23,10,57,15.50
2008,06,23,10,58,15.50
2008,06,23,10,59,15.40
2008,06,23,11,00,15.40
2008,06,23,11,01,15.40
2008,06,23,11,02,15.40
2008,06,23,11,03,15.50
2008,06,23,11,04,15.50
2008,06,23,11,05,15.50
2008,06,23,11,06,15.50
2008,06,23,11,07,15.50
2008,06,23,11,08,15.40
2008,06,23,11,09,15.40
2008,06,23,11,10,15.30
2008,06,23,11,11,15.30
2008,06,23,11,12,15.30
2008,06,23,11,13,15.30
2008,06,23,11,14,15.30
2008,06,23,11,15,15.30
2008,06,23,11,16,15.30
2008,06,23,11,17,15.30
2008,06,23,11,18,15.30
2008,06,23,11,19,15.30
2008,06,23,11,20,15.30
2008,06,23,11,21,15.20
2008,06,23,11,22,15.20
2008,06,23,11,23,15.20
2008,06,23,11,24,15.20
2008,06,23,11,25,15.20
2008,06,23,11,26,15.20
2008,06,23,11,27,15.30
2008,06,23,11,28,15.30
2008,06,23,11,29,15.30
2008,06,23,11,30,15.30
2008,06,23,11,31,15.30
2008,06,23,11,32,15.20
2008,06,23,11,33,15.10
2008,06,23,11,34,15.00
2008,06,23,11,35,15.00
2008,06,23,11,36,15.00
2008,06,23,11,37,14.90
2008,06,23,11,38,14.90
2008,06,23,11,39,14.90
2008,06,23,11,40,14.80
2008,06,23,11,41,14.80
2008,06,23,11,42,14.80
2008,06,23,11,43,14.90
2008,06,23,11,44,15.00
2008,06,23,11,45,15.00
2008,06,23,11,46,15.00
2008,06,23,11,47,15.00
2008,06,23,11,48,15.00
2008,06,23,11,49,15.00
2008,06,23,11,50,15.00
2008,06,23,11,51,15.00
2008,06,23,11,52,15.00
2008,06,23,11,53,15.10
2008,06,23,11,54,15.20
2008,06,23,11,55,15.20
2008,06,23,11,56,15.20
2008,06,23,11,57,15.30
2008,06,23,11,58,15.30
2008,06,23,11,59,15.40
2008,06,23,12,00,15.50
2008,06,23,12,01,15.40
2008,06,23,12,02,15.40
2008,06,23,12,03,15.30
2008,06,23,12,04,15.30
2008,06,23,12,05,15.30
2008,06,23,12,06,15.40
2008,06,23,12,07,15.40
2008,06,23,12,08,15.40
2008,06,23,12,09,15.30
2008,06,23,12,10,15.30
2008,06,23,12,11,15.30
2008,06,23,12,12,15.20
2008,06,23,12,13,15.20
2008,06,23,12,14,15.20
2008,06,23,12,15,15.20
2008,06,23,12,16,15.20
2008,06,23,12,17,15.20
2008,06,23,12,18,15.20
2008,06,23,12,19,15.20
2008,06,23,12,20,15.20
2008,06,23,12,21,15.20
2008,06,23,12,22,15.20
2008,06,23,12,23,15.20
2008,06,23,12,24,15.30
2008,06,23,12,25,15.30
2008,06,23,12,26,15.40
2008,06,23,12,27,15.40
2008,06,23,12,28,15.50
2008,06,23,12,29,15.50
2008,06,23,12,30,15.60
2008,06,23,12,31,15.60
2008,06,23,12,32,15.60
2008,06,23,12,33,15.70
2008,06,23,12,34,15.70
2008,06,23,12,35,15.70
2008,06,23,12,36,15.80
2008,06,23,12,37,15.80
2008,06,23,12,38,15.80
2008,06,23,12,39,15.80
2008,06,23,12,40,15.80
2008,06,23,12,41,15.90
2008,06,23,12,42,15.90
2008,06,23,12,43,15.90
2008,06,23,12,44,15.90
2008,06,23,12,45,15.80
2008,06,23,12,46,15.80
2008,06,23,12,47,15.80
2008,06,23,12,48,15.80
2008,06,23,12,49,15.80
2008,06,23,12,50,15.80
2008,06,23,12,51,15.90
2008,06,23,12,52,15.90
2008,06,23,12,53,16.00
2008,06,23,12,54,16.00
2008,06,23,12,55,16.10
2008,06,23,12,56,16.10
2008,06,23,12,57,16.00
2008,06,23,12,58,16.00
2008,06,23,12,59,16.00
2008,06,23,13,00,16.10
2008,06,23,13,01,16.10
2008,06,23,13,02,16.10
2008,06,23,13,03,16.10
2008,06,23,13,04,16.10
2008,06,23,13,05,16.10
2008,06,23,13,06,16.10
2008,06,23,13,07,16.20
2008,06,23,13,08,16.20
2008,06,23,13,09,16.20
2008,06,23,13,10,16.30
2008,06,23,13,11,16.30
2008,06,23,13,12,16.30
2008,06,23,13,13,16.30
2008,06,23,13,14,16.40
2008,06,23,13,15,16.40
2008,06,23,13,16,16.50
2008,06,23,13,17,16.50
2008,06,23,13,18,16.60
2008,06,23,13,19,16.60
2008,06,23,13,20,16.70
2008,06,23,13,21,16.70
2008,06,23,13,22,16.70
2008,06,23,13,23,16.80
2008,06,23,13,24,16.80
2008,06,23,13,25,16.80
2008,06,23,13,26,16.80
2008,06,23,13,27,16.90
2008,06,23,13,28,16.90
2008,06,23,13,29,16.90
2008,06,23,13,30,16.90
2008,06,23,13,31,16.90
2008,06,23,13,32,16.90
2008,06,23,13,33,17.00
2008,06,23,13,34,17.00
2008,06,23,13,35,17.10
2008,06,23,13,36,17.10
2008,06,23,13,37,17.20
2008,06,23,13,38,17.30
2008,06,23,13,39,17.30
2008,06,23,13,40,17.30
2008,06,23,13,41,17.30
2008,06,23,13,42,17.30
2008,06,23,13,43,17.30
2008,06,23,13,44,17.40
2008,06,23,13,45,17.40
2008,06,23,13,46,17.40
2008,06,23,13,47,17.40
2008,06,23,13,48,17.30
2008,06,23,13,49,17.30
2008,06,23,13,50,17.40
2008,06,23,13,51,17.40
2008,06,23,13,52,17.40
2008,06,23,13,53,17.40
2008,06,23,13,54,17.50
2008,06,23,13,55,17.60
2008,06,23,13,56,17.70
2008,06,23,13,57,17.60
2008,06,23,13,58,17.50
2008,06,23,13,59,17.40
2008,06,23,14,00,17.40
2008,06,23,14,01,17.40
2008,06,23,14,02,17.50
2008,06,23,14,03,17.60
2008,06,23,14,04,17.70
2008,06,23,14,05,17.80
2008,06,23,14,06,17.80
2008,06,23,14,07,17.90
2008,06,23,14,08,17.90
2008,06,23,14,09,18.00
2008,06,23,14,10,18.10
2008,06,23,14,11,18.10
2008,06,23,14,12,18.00
2008,06,23,14,13,18.00
2008,06,23,14,14,17.90
2008,06,23,14,15,17.90
2008,06,23,14,16,17.90
2008,06,23,14,17,17.90
2008,06,23,14,18,18.00
2008,06,23,14,19,17.90
2008,06,23,14,20,17.90
2008,06,23,14,21,17.80
2008,06,23,14,22,17.80
2008,06,23,14,23,17.80
2008,06,23,14,24,17.80
2008,06,23,14,25,17.80
2008,06,23,14,26,17.80
2008,06,23,14,27,17.90
2008,06,23,14,28,17.90
2008,06,23,14,29,18.00
2008,06,23,14,30,17.90
2008,06,23,14,31,17.80
2008,06,23,14,32,17.80
2008,06,23,14,33,17.80
2008,06,23,14,34,17.90
2008,06,23,14,35,17.90
2008,06,23,14,36,18.00
2008,06,23,14,37,18.00
2008,06,23,14,38,18.10
2008,06,23,14,39,18.10
2008,06,23,14,40,18.20
2008,06,23,14,41,18.30
2008,06,23,14,42,18.30
2008,06,23,14,43,18.30
2008,06,23,14,44,18.30
2008,06,23,14,45,18.30
2008,06,23,14,46,18.40
2008,06,23,14,47,18.40
2008,06,23,14,48,18.40
2008,06,23,14,49,18.40
2008,06,23,14,50,18.40
2008,06,23,14,51,18.40
2008,06,23,14,52,18.40
2008,06,23,14,53,18.40
2008,06,23,14,54,18.30
2008,06,23,14,55,18.40
2008,06,23,14,56,18.40
2008,06,23,14,57,18.50
2008,06,23,14,58,18.50
2008,06,23,14,59,18.60
2008,06,23,15,00,18.70
2008,06,23,15,01,18.70
2008,06,23,15,02,18.80
2008,06,23,15,03,18.80
2008,06,23,15,04,18.90
2008,06,23,15,05,18.90
2008,06,23,15,06,18.90
2008,06,23,15,07,18.90
2008,06,23,15,08,18.90
2008,06,23,15,09,18.80
2008,06,23,15,10,18.80
2008,06,23,15,11,18.90
2008,06,23,15,12,18.90
2008,06,23,15,13,18.90
2008,06,23,15,14,18.90
2008,06,23,15,15,18.90
2008,06,23,15,16,18.90
2008,06,23,15,17,18.90
2008,06,23,15,18,18.90
2008,06,23,15,19,19.00
2008,06,23,15,20,19.10
2008,06,23,15,21,19.10
2008,06,23,15,22,19.10
2008,06,23,15,23,19.10
2008,06,23,15,24,19.10
2008,06,23,15,25,19.10
2008,06,23,15,26,19.10
2008,06,23,15,27,19.20
2008,06,23,15,28,19.10
2008,06,23,15,29,19.10
2008,06,23,15,30,19.10
2008,06,23,15,31,19.10
2008,06,23,15,32,19.00
2008,06,23,15,33,19.00
2008,06,23,15,34,18.90
2008,06,23,15,35,18.90
2008,06,23,15,36,18.90
2008,06,23,15,37,18.90
2008,06,23,15,38,18.90
2008,06,23,15,39,18.90
2008,06,23,15,40,18.90
2008,06,23,15,41,19.00
2008,06,23,15,42,19.10
2008,06,23,15,43,19.30
2008,06,23,15,44,19.40
2008,06,23,15,45,19.40
2008,06,23,15,46,19.50
2008,06,23,15,47,19.60
2008,06,23,15,48,19.70
2008,06,23,15,49,19.80
2008,06,23,15,50,19.80
2008,06,23,15,51,19.90
2008,06,23,15,52,20.00
2008,06,23,15,53,20.10
2008,06,23,15,54,20.10
2008,06,23,15,55,20.10
2008,06,23,15,56,20.20
2008,06,23,15,57,20.20
2008,06,23,15,58,20.20
2008,06,23,15,59,20.20
2008,06,23,16,00,20.20
2008,06,23,16,01,20.20
2008,06,23,16,02,20.10
2008,06,23,16,03,20.10
2008,06,23,16,04,20.10
2008,06,23,16,05,20.10
2008,06,23,16,06,20.10
2008,06,23,16,07,20.10
2008,06,23,16,08,20.00
2008,06,23,16,09,20.00
2008,06,23,16,10,20.00
2008,06,23,16,11,20.00
2008,06,23,16,12,19.90
2008,06,23,16,13,19.90
2008,06,23,16,14,19.90
2008,06,23,16,15,19.90
2008,06,23,16,16,19.80
2008,06,23,16,17,19.80
2008,06,23,16,18,19.80
2008,06,23,16,19,19.80
2008,06,23,16,20,19.80
2008,06,23,16,21,19.80
2008,06,23,16,22,19.70
2008,06,23,16,23,19.70
2008,06,23,16,24,19.60
2008,06,23,16,25,19.60
2008,06,23,16,26,19.60
2008,06,23,16,27,19.60
2008,06,23,16,28,19.50
2008,06,23,16,29,19.50
2008,06,23,16,30,19.50
2008,06,23,16,31,19.40
2008,06,23,16,32,19.40
2008,06,23,16,33,19.40
2008,06,23,16,34,19.40
2008,06,23,16,35,19.40
2008,06,23,16,36,19.40
2008,06,23,16,37,19.30
2008,06,23,16,38,19.30
2008,06,23,16,39,19.30
2008,06,23,16,40,19.30
2008,06,23,16,41,19.30
2008,06,23,16,42,19.20
2008,06,23,16,43,19.20
2008,06,23,16,44,19.20
2008,06,23,16,45,19.30
2008,06,23,16,46,19.20
2008,06,23,16,47,19.20
2008,06,23,16,48,19.20
2008,06,23,16,49,19.20
2008,06,23,16,50,19.20
2008,06,23,16,51,19.20
2008,06,23,16,52,19.10
2008,06,23,16,53,19.10
2008,06,23,16,54,19.10
2008,06,23,16,55,19.10
2008,06,23,16,56,19.10
2008,06,23,16,57,19.10
2008,06,23,16,58,19.10
2008,06,23,16,59,19.10
2008,06,23,17,00,19.00
2008,06,23,17,01,19.00
2008,06,23,17,02,19.00
2008,06,23,17,03,19.00
2008,06,23,17,04,18.90
2008,06,23,17,05,18.90
2008,06,23,17,06,18.90
2008,06,23,17,07,18.90
2008,06,23,17,08,18.90
2008,06,23,17,09,19.00
2008,06,23,17,10,19.00
2008,06,23,17,11,19.10
2008,06,23,17,12,19.10
2008,06,23,17,13,19.10
2008,06,23,17,14,19.20
2008,06,23,17,15,19.30
2008,06,23,17,16,19.30
2008,06,23,17,17,19.30
2008,06,23,17,18,19.30
2008,06,23,17,19,19.30
2008,06,23,17,20,19.30
2008,06,23,17,21,19.40
2008,06,23,17,22,19.30
2008,06,23,17,23,19.30
2008,06,23,17,24,19.30
2008,06,23,17,25,19.30
2008,06,23,17,26,19.30
2008,06,23,17,27,19.30
2008,06,23,17,28,19.30
2008,06,23,17,29,19.30
2008,06,23,17,30,19.30
2008,06,23,17,31,19.30
2008,06,23,17,32,19.30
2008,06,23,17,33,19.30
2008,06,23,17,34,19.30
2008,06,23,17,35,19.30
2008,06,23,17,36,19.30
2008,06,23,17,37,19.30
2008,06,23,17,38,19.30
2008,06,23,17,39,19.40